Location: Москва
(55.7504°N, 37.6175°E)
Time: 18:11:51
(UTC+03:00)

BlueWalker 3 - Visible Passes

Search period start: 27 November 2022 00:00
Search period end: 07 December 2022 00:00
Orbit: 500 x 519 km, 53.2° (Epoch: 27 November)

Date Brightness Start Highest point End Pass type
(mag) Time Alt. Az. Time Alt. Az. Time Alt. Az.
27 Nov 3.8 17:20:13 10° SSW 17:23:06 20° SE 17:25:44 11° E visible
27 Nov 2.8 18:57:24 10° WSW 19:00:34 43° SSW 19:00:34 43° SSW visible
28 Nov 3.8 17:01:46 10° SSW 17:04:43 20° SE 17:07:40 10° E visible
28 Nov 2.4 18:39:02 10° WSW 18:42:49 48° SSE 18:42:57 48° SSE visible
28 Nov 5.1 20:17:24 10° W 20:17:47 12° W 20:17:47 12° W visible
29 Nov 3.8 16:43:20 10° SSW 16:46:21 21° SE 16:49:21 10° E visible
29 Nov 2.4 18:20:40 10° WSW 18:24:28 49° SSE 18:25:19 41° SE visible
29 Nov 4.7 19:59:03 10° W 20:00:09 18° W 20:00:09 18° W visible
30 Nov 2.4 18:02:17 10° WSW 18:06:05 50° SSE 18:07:40 30° ESE visible
30 Nov 4.1 19:40:41 10° W 19:42:30 25° WSW 19:42:30 25° WSW visible
01 Dec 2.5 17:43:54 10° WSW 17:47:43 51° SSE 17:50:01 22° E visible
01 Dec 3.4 19:22:19 10° W 19:24:50 36° WSW 19:24:50 36° WSW visible
02 Dec 2.5 17:25:31 10° WSW 17:29:20 52° SSE 17:32:21 15° E visible
02 Dec 2.7 19:03:56 10° W 19:07:11 49° SW 19:07:11 49° SW visible
03 Dec 2.5 17:07:07 10° WSW 17:10:57 53° SSE 17:14:43 10° E visible
03 Dec 2.3 18:45:34 10° W 18:49:24 55° S 18:49:33 55° S visible
03 Dec 5.3 20:24:18 10° W 20:24:22 10° W 20:24:22 10° W visible
04 Dec 2.5 16:48:43 10° WSW 16:52:34 54° S 16:56:23 10° E visible
04 Dec 2.4 18:27:10 10° W 18:31:01 55° S 18:31:56 42° SE visible
04 Dec 4.9 20:05:56 10° W 20:06:46 15° W 20:06:46 15° W visible
05 Dec 2.5 18:08:46 10° W 18:12:36 54° S 18:14:22 28° SE visible
05 Dec 4.5 19:47:33 10° W 19:49:13 19° WSW 19:49:13 19° WSW visible
06 Dec 2.6 17:50:22 10° W 17:54:12 53° SSW 17:56:53 18° ESE visible
06 Dec 4.1 19:29:11 10° W 19:31:43 23° SW 19:31:43 23° SW visible
